Regional Weather Roundup
Issued by NWS New Orleans/Baton Rouge, LA

Home | Current Version | Previous Version | Graphics & Text | Print | Product List | Glossary On
Versions: 1 2 3 4 5 6 7 8 9 10 11 12 13 14 15 16 17 18 19 20 21 22 23 24 25 26 27 28 29 30 31 32 33 34 35 36 37 38 39 40 41 42 43 44 45 46 47 48 49 50
528
ASUS44 KLIX 281905
RWRLIX
NEW ORLEANS REGIONAL WEATHER ROUNDUP
NATIONAL WEATHER SERVICE NEW ORLEANS LA
200 PM CDT MON JUL 28 2014

NOTE: "FAIR" INDICATES FEW OR NO CLOUDS BELOW 12,000 FEET WITH NO
      SIGNIFICANT WEATHER AND/OR OBSTRUCTIONS TO VISIBILITY.
      SKY/WX - SKY CONDITION AND SIGNIFICANT WEATHER.
      TMP - AIR TEMPERATURE.     DP    - DEWPOINT TEMPERATURE.
      RH  - RELATIVE HUMIDITY.   PRES  - PRESSURE.
      HI  - HEAT INDEX.          WCI   - WIND CHILL INDEX.

*  THESE STATIONS ARE NOT NWS OR FAA STATIONS AND ARE NOT UNDER
   NWS QUALITY CONTROL.

LAZ038-040-048-061>063-065>067-069-282000-
SOUTHEAST LOUISIANA

CITY           SKY/WX    TMP DP  RH WIND       PRES   REMARKS
N.O. AUDUBON     N/A     96  75  50 MISG        N/A  HX 108
N.O. INTL ARPT PTSUNNY   93  75  55 W14       30.04F HX 104
N.O. LAKEFRONT MOSUNNY   90  77  65 W9        30.05F HX 103
N.O. DOWNTOWN* CLOUDY    93  72  49 W8        30.05F HX 100
SLIDELL        PTSUNNY   91  77  63 SW9       30.02F HX 104
BATON ROUGE    PTSUNNY   89  76  65 NW8G18    30.06F HX 100
BOOTHVILLE     SUNNY     89  76  65 W15       30.07F HX 100
BELLE CHASSE   PTSUNNY   92  72  51 W9        30.04F HX  99
BOGALUSA*        N/A     91  73  54 W10       30.05S HX  99
GALLIANO*      NOT AVBL
NEW ROADS*       N/A     90  77  65 NW8       30.06F HX 102
GONZALES*      MOCLDY    91  78  65 W7        30.05F HX 104
HAMMOND*       PTSUNNY   93  73  52 NW13      30.06F HX 102
HOUMA*         MOSUNNY   93  72  49 W6        30.07S HX 100
PORT FOURCHON* NOT AVBL

$$

MSZ070-080>082-282000-
SOUTHERN MISSISSIPPI

CITY           SKY/WX    TMP DP  RH WIND       PRES   REMARKS
MCCOMB         PTSUNNY   89  75  63 W10       30.05F HX  99
GULFPORT       MOSUNNY   97  73  45 W9        30.00F HX 107
BILOXI         MOSUNNY   91  81  71 SW13      30.01F HX 111
PASCAGOULA     MOSUNNY   93  77  59 VRB7      30.00F HX 107
STENNIS ARPT*  MOSUNNY  N/A N/A N/A NW7       30.02F

$$

COASTAL OBSERVATIONS
LAKE AND NEARSHORE STATIONS

STATION/POSITION TIME  TEMP    WIND        PRES    WAVE
                       AIR SEA DIR/SP/G            HT/PER
                 (UTC) (F)     (DEG/KT/KT) (MB)    (FT/S)
PASCAGOULA       1900   89     240/ 16/ 19 1015.8
WAVELAND YACHT   1900   91     310/ 10/ 12 1015.9
GRAND ISLE       1900   88 87  260/ 11/ 14 1018.8
SOUTHWEST PASS   1900   87 85  300/  8/ 18 1018.9
NEW CANAL        1900   90 86  320/  3/  5 1018.0
SHELL BEACH      1900   89 83  270/  7/  9 1017.3

OFFSHORE STATIONS

STATION/POSITION TIME  TEMP    WIND        PRES    WAVE
                       AIR SEA DIR/SP/G            HT/PER
                 (UTC) (F)     (DEG/KT/KT) (MB)    (FT/S)
64 S DAUPHIN ISL 1836   85 86  280/ 14/ 17 1018.0

$$




USA.gov is the U.S. government's official web portal to all federal, state and local government web resources and services.